Weather History for New Haven, CT

Change the Weather History Date:

Thursday, March 28, 2013

  Actual Average Record
Temperature  
Mean Temperature 45 °F -  
Max Temperature 52 °F 49 °F 77 °F (1991)
Min Temperature 39 °F 35 °F 19 °F (1982)
Degree Days  
Heating Degree Days 20    
Moisture  
Dew Point 29 °F    
Average Humidity 53    
Maximum Humidity 63    
Minimum Humidity 41    
Precipitation  
Precipitation 0.00 in - - ()
Sea Level Pressure  
Sea Level Pressure 29.98 in    
Wind  
Wind Speed 8 mph (NNW)    
Max Wind Speed 13 mph    
Max Gust Speed 20 mph    
Visibility 10 miles    
Events      
Averages and records for this station are not official NWS values.
T = Trace of Precipitation, MM = Missing Value Source: NWS Daily Summary

Daily Weather History Graph

Daily Weather History Graph

Search for Another Location

Airport:

Trip Planner

Search our weather history database for the weather conditions in past years. The results will help you decide how hot, cold, wet, or windy it might be!

Date:

Astronomy

Mar. 28, 2013 Rise Set
Actual Time 6:41 AM EDT 7:12 PM EDT
Civil Twilight 6:13 AM EDT 7:40 PM EDT
Nautical Twilight 5:40 AM EDT 8:13 PM EDT
Astronomical Twilight 5:07 AM EDT 8:46 PM EDT
Moon 9:02 PM EDT (3/28) 7:06 AM EDT (3/28)
Length of Visible Light 13h 26m
Length of Day
12h 31m
Full, 98% of the Moon is Illuminated
Mar 28
Full
Apr 3
Last Quarter
Apr 10
New
Apr 18
First Quarter
Apr 25
Full

Hourly Weather History & Observations

Time (EDT) Temp. Windchill Dew Point Humidity Pressure Visibility Wind Dir Wind Speed Gust Speed Precip Events Conditions
12:53 AM 44.1 °F 39.0 °F 25.0 °F 47% 29.92 in 10.0 mi NW 9.2 mph 17.3 mph N/A   Partly Cloudy
1:53 AM 42.1 °F 38.4 °F 26.1 °F 53% 29.92 in 10.0 mi NW 5.8 mph - N/A   Clear
2:53 AM 41.0 °F 38.0 °F 26.1 °F 55% 29.92 in 10.0 mi NNW 4.6 mph - N/A   Mostly Cloudy
3:53 AM 41.0 °F 38.0 °F 27.0 °F 57% 29.92 in 10.0 mi NW 4.6 mph - N/A   Scattered Clouds
4:53 AM 39.9 °F 34.5 °F 27.0 °F 60% 29.92 in 10.0 mi NNW 8.1 mph - N/A   Partly Cloudy
5:53 AM 41.0 °F 37.1 °F 28.0 °F 60% 29.93 in 10.0 mi NW 5.8 mph - N/A   Mostly Cloudy
6:53 AM 39.9 °F 35.1 °F 28.0 °F 63% 29.94 in 10.0 mi NW 6.9 mph - N/A   Mostly Cloudy
7:53 AM 42.1 °F 36.6 °F 28.9 °F 60% 29.96 in 10.0 mi NNW 9.2 mph - N/A   Mostly Cloudy
8:53 AM 45.0 °F 38.9 °F 30.0 °F 56% 29.96 in 10.0 mi North 12.7 mph 19.6 mph N/A   Mostly Cloudy
9:53 AM 44.1 °F 37.7 °F 32.0 °F 63% 29.97 in 10.0 mi North 12.7 mph 18.4 mph N/A   Mostly Cloudy
10:53 AM 45.0 °F 38.9 °F 32.0 °F 60% 29.99 in 10.0 mi North 12.7 mph - N/A   Overcast
11:53 AM 46.9 °F - 32.0 °F 56% 29.98 in 10.0 mi NW 11.5 mph 17.3 mph N/A   Overcast
12:53 PM 50.0 °F - 30.9 °F 48% 29.98 in 10.0 mi North 10.4 mph - N/A   Overcast
1:53 PM 51.1 °F - 30.0 °F 44% 29.97 in 10.0 mi NW 8.1 mph - N/A   Overcast
2:53 PM 51.1 °F - 28.9 °F 43% 29.96 in 10.0 mi WNW 6.9 mph - N/A   Overcast
3:53 PM 50.0 °F - 28.9 °F 44% 29.97 in 10.0 mi NW 6.9 mph 17.3 mph N/A   Overcast
4:53 PM 50.0 °F - 28.0 °F 43% 29.97 in 10.0 mi NW 9.2 mph - N/A   Mostly Cloudy
5:53 PM 51.1 °F - 28.0 °F 41% 29.98 in 10.0 mi NNW 10.4 mph - N/A   Mostly Cloudy
6:53 PM 48.9 °F - 28.9 °F 46% 30.01 in 10.0 mi NNW 8.1 mph 18.4 mph N/A   Mostly Cloudy
7:53 PM 48.0 °F - 30.0 °F 50% 30.03 in 10.0 mi NNW 9.2 mph - N/A   Mostly Cloudy
8:53 PM 46.9 °F - 30.9 °F 54% 30.04 in 10.0 mi NW 6.9 mph - N/A   Overcast
9:53 PM 46.9 °F - 30.9 °F 54% 30.06 in 10.0 mi North 5.8 mph - N/A   Overcast
10:53 PM 46.9 °F - 32.0 °F 56% 30.07 in 10.0 mi NW 5.8 mph - N/A   Overcast
11:53 PM 46.0 °F 43.1 °F 32.0 °F 58% 30.07 in 10.0 mi NW 5.8 mph - N/A   Overcast